Probability
0 0 0 0 0 0 0 0 0 0 0 0 0 0 0 0 0 0 0 0 0 0 0 0 0 0 0 0 0 0 0 0 0 0 0 0 0 0 0 0 0 0 0 0
0 0 0 0 0 0 0 0 0 0 0 0 0 0 0 0 0 0 0 0 0 0 0 0 0 0 0 0 0 0 0 0 0 0 0 0 0 0 0 0 0 0 0 0
0 0 0 0 0 0 0 0 0 0 0 0 0 0 0 0 0 0 0 0 0 0 0 0 0 0 0 0 0 0 0 0 0 0 0 0 0 0 0 0 0 0 0 0
0 0 0 0 0 0 0 0 0 0 0 0 0 0 0 0 0 0 0 0 0 0 0 0 0 0 0 0 0 0 0 0 0 0 0 0 0 0 0 0 0 0 0 0
0 0 0 0 0 0 0 0 0 0 0 0 0 0 0 0 0 0 0 0 0 0 0 0 0 0 0 0 0 0 0 0 0 0 0 0 0 0 0 0 0 0 0 0
0 0 0 0 0 0 0 0 0 0 0 0 0 0 0 0 0 0 0 0 0 0 0 0 0 0 0 0 0 0 0 0 0 0 0 0 0 0 0 0 0 0 0 0
0 0 0 0 0 0 0 0 0 0 0 0 0 0 0 0 0 0 0 0 0 0 0 0 0 0 0 0 0 0 0 0 0 0 0 0 0 0 0 0 0 0 0 0
0 0 0 0 0 0 0 0 0 0 0 0 0 0 0 0 0 0 0 0 0 0 0 0 0 0 0 0 0 0 0 0 0 0 0 0 0 0 0 0 0 0 0 0
0 0 0 0 0 0 0 0 0 0 0 0 0 0 0 0 0 0 0 0 0 0 0 0 0 0 0 0 0 0 0 0 0 0 0 0 0 0 0 0 0 0 0 0
0 0 0 0 0 0 0 0 0 0 0 0 0 0 0 0 0 0 0 0 0 0 0 0 0 0 0 0 0 0 0 0 0 0 0 0 0 0 0 0 0 0 0 0
0 0 0 0 0 0 0 0 0 0 0 0 0 0 0 0 0 0 0 0 0 0 0 0 0 0 0 0 0 0 0 0 0 0 0 0 0 0 0 0 0 0 0 0
0 0 0 0 0 0 0 0 0 0 0 0 0 0 0 0 0 0 0 0 0 0 0 0 0 0 0 0 0 0 0 0 0 0 0 0 0 0 0 0 0 0 0 0
0 0 0 0 0 0 0 0 0 0 0 0 0 0 0 0 0 0 0 0 0 0 0 0 0 0 0 0 0 0 0 0 0 0 0 0 0 0 0 0 0 0 0 0
0 0 0 0 0 0 0 0 0 0 0 0 0 0 0 0 0 0 0 0 0 0 0 0 0 0 0 0 0 0 0 0 0 0 0 0 0 0 0 0 0 0 0 0
0 0 0 0 0 0 0 0 0 0 0 0 0 0 0 0 0 0 0 0 0 0 0 0 0 0 0 0 0 0 0 0 0 0 0 0 0 0 0 0 0 0 0 0
0 0 0 0 0 0 0 0 0 0 0 0 0 0 0 0 0 0 0 0 0 0 0 0 0 0 0 0 0 0 0 0 0 0 0 0 0 0 0 0 0 0 0 0
0 0 0 0 0 0 0 0 0 0 0 0 0 0 0 0 0 0 0 0 0 0 0 0 0 0 0 0 0 0 0 0 0 0 0 0 0 0 0 0 0 0 0 0
0 0 0 0 0 0 0 0 0 0 0 0 0 0 0 0 0 0 0 0 0 0 0 0 0 0 0 0 0 0 0 0 0 0 0 0 0 0 0 0 0 0 0 0
0 0 0 0 0 0 0 0 0 0 0 0 0 0 0 0 0 0 0 0 0 0 0 0 0 0 0 0 0 0 0 0 0 0 0 0 0 0 0 0 0 0 0 0
0 0 0 0 0 0 0 0 0 0 0 0 0 0 0 0 0 0 0 0 0 0 0 0 0 0 0 0 0 0 0 0 0 0 0 0 0 0 0 0 0 0 0 0
0 0 0 0 0 0 0 0 0 0 0 0 0 0 0 0 0 0 0 0 0 0 0 0 0 0 0 0 0 0 0 0 0 0 0 0 0 0 0 0 0 0 0 0
0 0 0 0 0 0 0 0 0 0 0 0 0 0 0 0 0 0 0 0 0 0 0 0 0 0 0 0 0 0 0 0 0 0 0 0 0 0 0 0 0 0 0 0
0 0 0 0 0 0 0 0 0 0 0 0 0 0 0 0 0 0 0 0 0 0 0 0 0 0 0 0 0 0 0 0 0 0 0 0 0 0 0 0 0 0 0 0
0 0 0 0 0 0 0 0 0 0 0 0 0 0 0 0 0 0 0 0 0 0 0 0 0 0 0 0 0 0 0 0 0 0 0 0 0 0 0 0 0 0 0 0
0 0 0 0 0 0 0 0 0 0 0 0 0 0 0 0 0 0 0 0 0 0 0 0 0 0 0 0 0 0 0 0 0 0 0 0 0 0 0 0 0 0 0 0
0 0 0 0 0 0 0 0 0 0 0 0 0 0 0 0 0 0 0 0 0 0 0 0 0 0 0 0 0 0 0 0 0 0 0 0 0 0 0 0 0 0 0 0
0 0 0 0 0 0 0 0 0 0 0 0 0 0 0 0 0 0 0 0 0 0 0 0 0 0 0 0 0 0 0 0 0 0 0 0 0 0 0 0 0 0 0 0
Wind_Speed
3 1 5 11 14 13 12 8 7 1 6 14 13 12 11 8 5 2 2 4 6 8 7 7 8 9 10 11 11 11 11 11 10 9 10 11 12 12 11 11 11 12 12 12
8 6 8 10 11 9 6 5 3 5 9 12 13 12 9 6 2 1 3 5 7 8 7 8 10 11 11 9 8 7 7 7 8 10 10 11 12 12 10 10 11 11 11 12
10 10 10 10 12 10 7 3 4 5 12 15 13 10 6 4 2 3 6 8 8 7 8 9 9 10 9 8 8 8 9 10 9 10 12 12 10 10 10 11 12 12 12 12
9 11 9 5 4 4 7 6 5 13 16 14 11 8 6 4 5 6 8 7 6 6 7 8 8 8 8 7 8 9 8 8 10 10 10 10 10 9 10 10 11 11 11 10
8 12 5 7 8 12 12 9 10 15 15 12 9 5 8 8 7 7 6 5 6 7 7 7 7 6 7 7 8 9 10 10 9 8 8 9 9 10 10 10 11 12 12 11
7 9 9 7 11 9 9 10 11 13 13 10 5 3 9 8 6 5 4 5 6 6 6 5 5 6 6 7 8 10 10 8 6 6 7 8 9 9 10 11 10 11 11 11
6 5 3 8 12 10 8 12 16 12 10 7 3 6 7 5 5 4 4 5 6 6 4 3 5 5 6 7 9 8 6 5 5 6 7 8 10 9 9 10 10 10 10 11
4 6 5 14 14 7 10 16 14 11 8 6 5 5 4 4 4 3 4 5 5 4 2 1 4 5 6 6 6 5 4 5 6 6 7 8 10 9 9 10 10 10 10 10
1 1 10 14 10 13 16 16 12 9 8 6 5 5 4 3 3 3 4 5 3 2 1 1 2 5 6 7 6 6 7 7 7 7 8 9 10 9 8 10 11 11 11 9
6 10 14 12 16 15 14 13 11 10 9 6 5 4 3 3 3 3 5 4 2 3 3 2 5 6 7 8 8 8 9 8 8 7 5 8 7 8 9 9 11 12 13 12
11 16 14 15 16 15 14 13 12 10 8 6 4 4 3 3 4 4 5 4 3 2 4 6 6 6 6 6 7 8 8 7 7 7 7 8 8 6 6 7 7 9 11 13
9 14 10 16 16 15 14 13 12 10 9 6 4 4 3 4 4 5 5 4 2 3 5 6 6 6 6 6 7 8 9 9 7 7 8 8 9 6 3 4 5 2 5 10
10 10 10 17 15 13 11 10 9 9 8 7 6 5 4 5 6 6 5 4 3 4 6 6 6 8 8 7 7 8 8 9 8 8 9 10 10 10 8 2 7 4 7 11
11 11 13 14 12 9 9 11 10 10 8 7 6 5 6 7 7 6 4 3 3 5 5 5 6 8 8 8 8 9 8 5 8 8 9 10 10 10 10 10 8 9 12 11
8 7 11 11 11 10 11 11 11 9 8 7 5 6 8 8 7 5 3 2 3 3 4 5 6 8 8 8 7 8 10 10 9 8 9 9 10 10 10 10 10 11 12 13
9 9 10 11 11 10 10 9 8 8 7 6 6 7 7 7 5 3 1 2 3 3 4 5 7 8 8 8 7 7 8 8 8 8 9 10 10 10 10 11 12 12 11 12
9 9 8 9 9 8 7 6 6 7 7 7 7 8 7 6 5 3 1 2 2 3 4 6 7 7 8 8 8 7 8 8 7 9 10 10 10 11 11 11 12 11 10 12
4 4 2 1 4 6 7 7 7 8 7 7 7 7 7 7 6 3 2 1 3 6 6 7 7 7 9 10 8 8 8 8 9 10 10 10 10 11 11 12 13 12 11 13
2 2 3 4 5 5 7 8 8 8 8 8 8 8 8 7 5 2 1 3 5 7 6 6 3 5 9 10 9 8 8 9 10 10 10 10 10 11 11 12 12 11 11 11
4 5 6 6 7 8 7 8 9 9 9 8 7 9 9 7 5 3 3 5 7 6 6 5 5 7 8 7 6 7 9 9 10 10 9 10 11 11 12 13 13 11 11 11
7 7 7 7 8 8 9 9 10 10 9 8 8 10 10 8 5 5 6 7 7 5 5 4 5 7 7 4 5 8 9 9 10 10 10 10 11 11 12 13 12 11 11 11
7 7 6 7 8 8 8 10 10 11 9 8 10 11 10 8 7 4 4 6 6 2 3 7 8 8 5 5 7 9 9 10 10 10 10 10 10 11 12 12 11 10 10 11
10 9 8 9 10 10 10 10 10 10 9 10 11 11 10 9 7 8 8 4 5 4 7 9 6 2 6 4 8 9 10 10 10 10 10 10 10 11 11 11 11 10 10 10
9 9 8 9 10 10 10 9 9 8 9 11 11 10 9 7 5 6 9 7 7 8 10 8 3 3 3 7 8 9 9 9 8 9 9 9 10 10 11 11 11 11 10 11
6 7 8 9 8 7 8 9 8 9 11 11 11 9 7 7 8 8 9 10 9 11 10 6 2 3 4 8 9 10 9 9 8 8 9 9 10 10 10 11 11 11 11 11
6 5 6 6 6 6 6 7 7 9 10 10 11 10 7 7 8 8 9 10 11 10 9 7 5 5 8 9 9 9 8 7 7 8 9 9 10 10 10 11 12 11 11 11
7 6 7 5 5 6 6 7 8 10 11 11 10 10 9 8 8 8 9 10 9 8 8 7 7 7 8 8 8 8 8 8 7 7 8 8 9 9 9 10 10 10 11 12
Wind_Direction
227 268 222 186 188 196 216 237 274 302 126 148 161 151 145 145 135 110 66 32 25 21 21 10 0 352 348 348 356 356 353 355 356 340 324 313 313 315 318 319 322 322 330 336
158 155 158 163 170 173 172 178 165 134 104 126 135 132 146 147 118 46 7 16 23 26 8 2 357 350 345 358 358 350 341 342 343 333 323 322 326 334 338 349 350 347 348 345
176 161 160 179 177 173 160 187 193 164 126 139 147 153 144 114 54 16 11 14 24 7 1 1 352 340 346 351 340 343 355 352 346 332 332 337 341 356 1 357 354 349 349 354
164 172 209 114 107 164 141 126 110 113 130 144 137 130 116 56 14 18 17 20 12 360 359 356 351 350 346 344 339 335 341 342 338 348 351 2 7 1 353 348 351 349 353 357
183 209 180 140 165 168 151 128 131 130 134 130 125 165 108 73 51 41 33 29 14 8 350 357 354 347 337 352 326 331 350 356 355 357 359 8 6 1 354 345 356 355 355 1
191 206 222 136 151 168 152 147 151 143 140 135 153 231 91 76 62 68 54 32 15 356 347 1 353 346 350 339 356 6 10 9 359 357 359 360 355 352 350 346 358 354 358 11
165 194 119 117 145 162 193 147 150 143 136 139 126 50 65 74 80 70 43 33 16 356 4 351 352 354 351 357 19 16 24 21 3 357 348 354 347 349 347 346 350 349 6 10
202 227 192 146 157 173 117 125 136 137 135 134 108 102 94 84 72 45 19 38 25 5 10 343 349 345 343 9 3 354 360 349 345 345 345 350 340 342 347 352 345 351 9 9
290 108 118 148 126 120 123 128 135 135 130 133 129 110 101 88 53 35 27 47 32 31 80 106 334 320 323 330 324 321 323 332 335 337 349 345 351 354 360 2 352 360 359 10
164 122 131 132 126 129 125 127 130 128 131 138 113 103 105 74 48 51 74 80 93 117 94 7 328 316 309 308 311 307 316 330 331 327 340 343 4 3 3 12 359 1 355 3
128 131 132 139 137 129 125 127 123 121 117 108 105 92 73 78 82 92 99 110 114 53 356 334 331 327 333 341 337 335 329 329 342 345 355 352 4 15 9 39 20 9 8 2
157 154 154 149 144 140 141 139 133 126 117 102 86 89 82 88 102 117 127 127 93 3 333 341 344 355 10 8 2 1 360 8 17 359 4 5 359 18 88 117 122 82 58 27
123 142 138 145 154 156 141 130 126 123 119 111 96 90 94 109 116 129 134 110 34 341 342 352 5 30 28 23 12 15 16 6 7 12 8 5 1 359 359 98 129 98 67 41
120 131 132 150 153 147 126 116 115 111 109 110 111 111 117 125 132 133 113 58 350 328 351 3 29 39 29 20 16 12 11 13 3 14 14 2 1 3 360 355 14 10 37 25
105 125 137 139 133 127 127 132 133 130 128 123 118 124 132 134 128 115 82 356 313 323 18 18 32 32 18 14 14 27 24 15 2 13 17 5 7 8 8 2 15 15 12 6
119 123 139 144 140 140 142 147 146 140 138 135 131 125 128 126 125 121 87 344 337 14 33 30 40 32 24 20 14 37 60 35 352 15 19 14 16 14 12 10 20 23 14 7
150 145 149 149 152 153 155 157 152 145 144 141 128 134 147 142 143 141 104 17 358 48 57 52 42 33 33 28 20 29 35 42 17 24 27 21 17 18 16 20 28 22 17 19
91 97 81 141 171 169 164 167 158 153 149 136 133 150 162 158 147 132 58 25 120 99 77 59 27 21 40 30 21 32 35 37 33 31 31 27 21 25 21 27 33 25 12 13
182 215 212 215 217 209 188 179 166 152 142 142 146 162 162 152 147 124 140 165 129 105 76 60 12 39 54 22 354 42 40 42 45 37 32 29 30 34 33 32 34 25 16 11
231 229 227 219 213 214 201 175 153 146 145 143 150 161 158 158 157 150 145 86 63 62 65 74 80 72 66 42 353 43 49 47 47 47 35 35 32 34 40 44 36 23 16 12
236 218 203 196 192 198 191 162 153 147 145 148 162 163 160 157 158 171 161 122 97 87 101 93 67 68 62 33 38 53 51 49 48 45 38 36 39 38 40 45 39 23 16 12
183 149 139 143 156 163 156 149 147 143 146 151 165 163 161 158 158 141 85 93 101 152 123 88 70 51 21 351 56 57 55 52 50 48 43 38 38 40 40 45 43 30 21 16
131 129 134 129 133 138 142 144 142 145 150 159 167 168 169 161 159 150 132 106 100 90 82 83 82 35 308 47 68 65 61 57 53 50 46 43 42 41 43 44 45 37 26 20
141 138 130 125 134 141 143 142 138 147 159 168 166 167 166 155 135 106 98 93 89 90 90 93 93 317 336 73 71 69 66 62 56 56 54 49 47 44 44 41 41 43 33 27
150 144 147 147 151 147 142 145 146 155 168 165 158 168 176 156 135 120 112 117 128 113 107 117 184 270 70 73 71 69 66 56 45 51 55 51 50 46 43 45 41 37 40 34
152 176 164 157 150 146 154 155 157 168 171 166 162 163 157 136 123 127 127 128 125 126 128 132 114 90 81 77 77 75 75 78 72 60 57 56 54 50 46 43 43 42 38 38
181 172 157 158 158 151 150 154 166 178 181 164 155 155 152 143 132 129 135 137 132 122 114 111 102 89 90 92 88 83 78 66 53 58 64 59 55 51 49 48 45 43 42 38